www.pogodaiklimat.ru

Погода и климат >> Архив погоды >> Россия >> Краснодарский край >> Белая Глина


ПОГОДА в Белой Глине

  • Прогноз погоды в Белой Глине
  • Монитор погоды в Белой Глине

АРХИВ ПОГОДЫ в Белой Глине

Время (UTC), дата Ветер
(напр.,м/с)
 
Видим.   Явления Облачность Т
(С)
Тd
(С)
f
(%)
Тe
(С)
Тes
(С)
Комфортность P
(гПа)
Po
(гПа)
Тmin
(С)
Tmax
(С)
R
(мм)
R24
(мм)
S
(см)
18 17.08 ЮЗ 1 10 км ясно +23.7 +17.3 67 +28 +28 душно 1009.6 1001.7
21 17.08 З 2 10 км 3/0
[Ci fib]
+22.4 +17.9 76 +27 +27 душно 1009.6 1001.6
00 18.08 З 1 10 км 4/0
[Ci fib]
+20.4 +17.0 81 +25 +25 комфорт 1009.3 1001.3
03 18.08 З 2 4000 м гроза, ливневой дождь 10/8 300 м
[Cb cap Ac lent]
+19.3 +18.5 95 +22 +22 комфорт 1009.6 1001.5 +19.2 5
06 18.08 СВ 1 4000 м дымка {гроза, ливн. осадки} 10/3 600 м
[Cb cap Ac lent]
+21.7 +19.9 90 +27 +28 душно 1009.3 1001.3 +19.2
09 18.08 С 1 4000 м слаб. ливневой дождь 10/8 300 м
[Cb cap Ac lent]
+23.1 +20.9 87 +31 +31 очень
душно
1009.5 1001.6
12 18.08 СЗ 1 10 км {ливн. осадки} 4/1 1500 м
[Cu hum Ac trans]
+27.8 +19.4 60 +33 +42 очень
душно
1009.7 1001.9
15 18.08 СЗ 2 10 км 4/4 600 м
[Cu hum]
+28.0 +19.0 58 +33 +34 очень
душно
1010.0 1002.2 +29.1 7
18 18.08 З 1 10 км 4/0
[Ci fib]
+24.0 +19.0 74 +29 +29 душно 1011.1 1003.1
21 18.08 З 1 10 км 4/0
[Ac lent]
+23.1 +18.9 77 +29 +29 очень
душно
1012.1 1004.2
00 19.08 СЗ 2 10 км 3/0
[Ac lent]
+21.9 +18.7 82 +27 +27 душно 1012.5 1004.5
03 19.08 С 1 4000 м дымка 8/0
[Ac cast]
+20.7 +19.1 91 +26 +26 душно 1013.3 1005.3 +20.4
06 19.08 З 1 10 км 8/0
[Ac cast Ci sp]
+25.3 +18.5 66 +30 +35 душно 1015.1 1007.1
09 19.08 СЗ 3 10 км 8/0
[Ac cast Cs]
+28.4 +18.7 56 +34 +42 очень
душно
1014.8 1007.0
12 19.08 СЗ 2 10 км 3/3 1500 м
[Cu hum]
+31.9 +16.4 39 +35 +42 очень
душно
1014.3 1006.5
15 19.08 СЗ 3 10 км 1/1 1500 м
[Cu hum]
+30.1 +17.8 48 +35 +35 очень
душно
1014.7 1006.9 +32.8
18 19.08 С 1 10 км ясно +26.0 +17.2 58 +30 +30 душно 1016.2 1008.2
21 19.08 С 2 10 км ясно +24.1 +17.2 65 +28 +28 душно 1016.4 1008.4
00 20.08 СВ 1 10 км ясно +22.3 +17.7 75 +27 +27 душно 1016.1 1008.1
03 20.08 СВ 1 10 км 4/4 1000 м
[Cu hum]
+21.2 +17.9 81 +25 +25 комфорт 1017.0 1008.9 +20.3
06 20.08 СВ 2 10 км ясно +28.4 +15.7 46 +31 +39 душно 1017.0 1009.1
09 20.08 С 3 10 км ясно +33.5 +13.9 31 +35 +47 душно 1016.3 1008.6
12 20.08 С 3
{11}
10 км ясно +35.3 +12.3 25 +35 +43 очень
жарко
1014.6 1006.9
15 20.08 С 2 10 км 8/3 2000 м
[Cu hum Ci sp]
+33.4 +13.1 29 +34 +34 очень
жарко
1014.1 1006.4 +35.4
18 20.08 С 1 10 км ясно +30.4 +13.3 35 +32 +32 жарко 1014.9 1007.1
21 20.08 С 1 10 км 6/0
[Ci fib]
+26.4 +12.4 42 +28 +28 жарко 1014.8 1006.9
00 21.08 С 1 10 км 4/0
[Ci fib]
+23.7 +9.9 42 +25 +25 комфорт 1014.3 1006.3
03 21.08 СВ 2 10 км 8/0
[Ac cast Ci]
+22.3 +11.3 50 +24 +25 комфорт 1014.8 1006.8 +22.3
06 21.08 СВ 2 10 км 4/0
[Ci fib]
+26.4 +12.4 42 +28 +35 жарко 1015.2 1007.3 +22.3
09 21.08 СВ 4 10 км 8/0
[Ac lent Ci fib]
+33.1 +8.7 22 +32 +37 жарко 1013.9 1006.1
12 21.08 В 4
{12}
10 км 6/0
[Ci fib]
+36.7 +3.2 12 +33 +39 жарко 1012.3 1004.7
15 21.08 В 3
{10}
10 км 6/0
[Ci fib]
+35.2 +2.0 12 +32 +32 жарко 1011.7 1004.0 +36.8
18 21.08 СВ 2 10 км 8/0
[Cs]
+27.6 +4.2 22 +26 +26 жарко 1011.8 1003.9
21 21.08 СВ 2 10 км 3/0
[Ci fib]
+25.4 +5.5 28 +25 +25 комфорт 1012.0 1004.0
00 22.08 СВ 1 10 км ясно +21.6 +7.6 40 +23 +23 комфорт 1012.6 1004.5
03 22.08 СВ 1 10 км ясно +20.7 +7.9 44 +23 +23 комфорт 1013.0 1004.9 +20.0
06 22.08 В 3 10 км 3/0
[Ci fib]
+30.0 +5.3 21 +28 +34 жарко 1013.1 1005.2
09 22.08 В 6-11
{11}
10 км ясно +35.6 +3.0 13 +32 +38 жарко 1012.3 1004.6
12 22.08 СВ 4
{11}
10 км 3/0
[Ci fib]
+37.0 +2.8 12 +34 +40 очень
жарко
1011.6 1004.0
15 22.08 В 2
{10}
10 км 4/0
[Ci fib]
+35.9 +2.9 13 +33 +33 жарко 1011.2 1003.5 +37.5
18 22.08 С 2 10 км ясно +29.9 +8.6 26 +29 +29 жарко 1012.5 1004.7
21 22.08 СВ 2 10 км ясно +26.0 +8.8 34 +26 +26 жарко 1012.3 1004.4
00 23.08 СВ 1 10 км ясно +22.1 +8.9 43 +23 +23 комфорт 1012.6 1004.6
03 23.08 СВ 1 10 км ясно +20.0 +9.4 50 +22 +23 комфорт 1013.9 1005.9 +18.1
06 23.08 СВ 2 10 км 8/0
[Ci sp]
+28.9 +9.1 29 +29 +35 жарко 1013.9 1006.0
09 23.08 СВ 4 10 км 4/0
[Ci sp]
+36.0 +4.1 14 +33 +42 жарко 1013.0 1005.3
12 23.08 СВ 4
{11}
10 км 9/0
[Ac lent Cc]
+37.8 +4.1 12 +35 +38 очень
жарко
1012.0 1004.4
15 23.08 СВ 3
{10}
10 км 10/3 300 м
[Cb cap Ac lent]
+35.0 +4.2 15 +32 +32 жарко 1012.3 1004.6 +37.9
18 23.08 С 1 10 км 6/0
[Ac lent]
+29.6 +5.6 22 +28 +28 жарко 1012.7 1004.9
21 23.08 СВ 3 10 км 8/0
[Ac lent]
+28.8 +8.8 29 +29 +29 жарко 1012.7 1004.9
00 24.08 СВ 1 10 км ясно +25.5 +9.8 37 +26 +26 жарко 1013.3 1005.4
03 24.08 СВ 2 10 км 4/0
[Ac lent Ci fib]
+24.3 +10.3 41 +25 +25 комфорт 1014.1 1006.1 +23.8
06 24.08 СВ 3 10 км 8/0
[Ac trans Cc]
+28.7 +9.7 31 +29 +33 жарко 1014.3 1006.4
09 24.08 СВ 4
{10}
10 км 3/0
[Ci sp]
+35.1 +7.6 18 +33 +42 жарко 1012.9 1005.2
12 24.08 СВ 4
{11}
10 км 8/0
[Ci]
+38.3 +5.0 13 +35 +41 очень
жарко
1011.8 1004.2

 

Местоположение метеостанции Белая Глина (Краснодарский край, Россия): широта 46.08 долгота 40.88 высота над уровнем моря 69 м.

В архиве по умолчанию представлена погода в Белой Глине за последнюю неделю. Архивные данные за месяц целиком и за предыдущие месяцы, начиная с января 2011 года, Вы можете получить, выбрав интересующий диапазон дат из раскрывающегося списка и нажав кнопку "Ввод!".


*Определитесь, кто Вы:
робот инопланетянин человек

Внимание! Время в таблицах - всемирное. Для получения местного времени необходимо прибавить поправку, которая равна 3 ч.

Смотрите также архив погоды в соседних городах и на ближайших метеорологических станциях:

Погода в Красногвардейском (Ставропольский край, Россия) (54 км)
Погода в Гиганте (Ростовская область, Россия) (61 км)
Погода в Тихорецке (Краснодарский край, Россия) (67 км)
Погода в Новоалександровске (Ставропольский край, Россия) (69 км)
Погода в Кропоткине (Краснодарский край, Россия) (76 км)
Погода в Сосыке (Краснодарский край, Россия) (81 км)
Погода в Городовиковске (Калмыкия, Россия) (84 км)
Погода в Зерноград (Ростовская область, Россия) (96 км)
Погода в Изобильном (Ставропольский край, Россия) (101 км)
Погода в Кущевской (Краснодарский край, Россия) (109 км)

Пояснения к столбцам:

Ветер - указаны скорость ветра в м/с - средняя за 10 мин, порывы в срок и между сроками (в фигурных скобках) и направление, откуда дует ветер: С - северный, СВ - северо-восточный, В - восточный, ЮВ - юго-восточный, Ю - южный, ЮЗ - юго-западный, З - западный, СЗ - северо-западный.
Видимость - горизонтальная дальность видимости в метрах или километрах. При видимости от 1 до 10 км при отсутствии осадков обычно наблюдается дымка, при ухудшении видимости до 1 км и менее - туман. В сухую погоду видимость может ухудшаться дымом, пылью или мглою.
Явления - указаны атмосферные явления, наблюдавшиеся в срок или в последний час перед сроком; фигурными скобками обозначены явления, наблюдавшиеся между сроками (за 1-3 часа до срока); квадратными скобками обозначены град или гололедные отложения с указанием их диаметра в мм.
Облачность - указаны через наклонную черту общая и нижняя облачность в баллах и высота нижней границы облаков в метрах; квадратными скобками обозначены формы облаков: Ci - перистые, Cs - перисто-слоистые, Cc - перисто-кучевые, Ac - высококучевые, As - высокослоистые, Sc - слоисто-кучевые, Ns - слоисто-дождевые, Cu - кучевые, Cb - кучево-дождевые. Подробнее классификацию облаков см. в Атласе облаков (PDF).
T - Температура воздуха - температура, измеренная на высоте 2 м над землей.
Td - Температура точки росы - температура, при понижении до которой содержащийся в воздухе водяной пар достигнет насыщения.
f - Относительная влажность воздуха - влажноcть воздуха, измеренная на высоте 2 м над землей.
Te - Эффективная температура - температура, которую ощущает одетый по сезону человек в тени. Характеристика душности погоды. При расчете учитывается влияние влажности воздуха и скорости ветра на теплоощущения человека.
Tes - Эффективная температура на солнце - температура, которую ощущает человек, с поправкой на солнечный нагрев. Характеристика знойности погоды. Зависит от высоты солнца над горизонтом, облачности и скорости ветра. Ночью, в пасмурную погоду, а также при ветре 12 м/с и более поправка равна нулю.
P - Атмосферное давление - приведенное к уровню моря атмосферное давление.
Po - Атмосферное давление - измеренное на уровне метеостанции атмосферное давление.
Tmin - Минимальная температура - минимум температуры воздуха на высоте 2 м над землей.
Tmax - Максимальная температура - максимум температуры воздуха на высоте 2 м над землей.
R - Количество осадков - Количество выпавших осадков за период времени, мм. При наведении курсора мыши на число - период времени, за который выпало указанное количество осадков.
R24 - Количество осадков - Количество выпавших осадков за 24 часа, мм.
S - Снежный покров - Высота снежного покрова, см. При наведении курсора мыши на число - состояние снежного покрова и степень покрытия местности в баллах.